This is the latest recevied weather packets stored in our database for station/object F4LPU-13. If no packets are shown the sender has not sent any weather packets the latest 1 day(s).
| Time | Temp. | Humidity | Pressure | Rain* | Wind** | Luminosity | Snow |
|---|---|---|---|---|---|---|---|
| 1778011262 | 12.22° C | 9% | - | 0 mm | 0.89 m/s, 161° | - | - |
| 1778010903 | 13.89° C | 9% | - | 0 mm | 1.34 m/s, 63° | - | - |
| 1778007903 | 13.89° C | 9% | - | 0 mm | 1.34 m/s, 63° | - | - |
| 1778007724 | 13.89° C | 9% | - | 0 mm | 1.34 m/s, 63° | - | - |
| 1778004903 | 13.89° C | 9% | - | 0 mm | 1.34 m/s, 63° | - | - |
| 1778001903 | 16.11° C | 7% | - | 0.25 mm | 0.45 m/s, 315° | - | - |
| 1777998903 | 16.11° C | 7% | - | 0.25 mm | 0.45 m/s, 315° | - | - |
| 1777995903 | 16.11° C | 7% | - | 0.51 mm | 1.34 m/s, 311° | - | - |
| 1777992903 | 16.11° C | 7% | - | 0.51 mm | 1.34 m/s, 311° | - | - |
| 1777989902 | 16.11° C | 7% | - | 0.51 mm | 1.34 m/s, 311° | - | - |
| 1777986902 | 16.11° C | 7% | - | 0.25 mm | 0.45 m/s, 230° | - | - |
| 1777983902 | 16.11° C | 7% | - | 0.25 mm | 0.45 m/s, 230° | - | - |
| 1777980902 | 15° C | 8% | - | 0 mm | 1.34 m/s, 206° | - | - |
| 1777977902 | 15° C | 8% | - | 0 mm | 1.34 m/s, 206° | - | - |
| 1777974902 | 12.22° C | 9% | - | 0 mm | 2.68 m/s, 195° | - | - |
| 1777971902 | 12.22° C | 9% | - | 0 mm | 2.68 m/s, 195° | - | - |
| 1777968902 | 12.22° C | 9% | - | 0 mm | 2.68 m/s, 195° | - | - |
| 1777965902 | 12.22° C | 9% | - | 0 mm | 1.34 m/s, 183° | - | - |
| 1777962902 | 12.22° C | 9% | - | 0 mm | 1.34 m/s, 183° | - | - |
| 1777959902 | 11.67° C | 9% | - | 0 mm | 0.89 m/s, 189° | - | - |
| 1777956902 | 14.44° C | 8% | - | 0 mm | 3.13 m/s, 162° | - | - |
* Rain latest hour (hover to see other rain measurements)
** Current wind speed in m/s (hover to see current wind gust speed)